JACK E

Last updated on Wed Dec 31 2025 00:02:07 GMT+0000 (Coordinated Universal Time)

1 66654U 25274E 25364.31784608 .00003927 00000+0 39047-3 0 9990 2 66654 97.7404 291.2066 0012817 191.6749 168.4175 14.92188062 5022
UTC large
Height (km)
Speed (km/s)
/
Latitude / Longitude
Inclination (degrees)
Orbital Period (minutes)
Azimuth
Elevation
Range (km)
Doppler Factor

Next 0 passes for location: London (51.5072 / 0.1276)

Sorry there are no passes over London.